[[{"header":{"parameterUnit":"m.s-1","parameterCategory":1,"la1":30.2991,"la2":30.254,"lo1":-89.0895,"lo2":-89.0444,"dy":0.0017,"dx":0.0017,"nx":28,"ny":28,"refTime":"2024-09-02T09:00:00:Z","depth":0,"parameterNumber":2,"parameterNumberName":"U-component_of_WINDS"},"data":[0,0,0,0,0,0,0,0,0,0,0,0,0,0,0,0,0,0,0,0,0,0,0,0,0,0,0,0,0,0,0,0,0,0,0,0,0,0,0,0,0,0,0,0,0,0,0,0,0,0,0,0,0,0,0,0,0,0,-2.2262,-2.2263,0,-2.2337,-2.2338,-2.2339,-2.2309,-2.2307,-2.2306,-2.2304,-2.2383,-2.2387,-2.2391,0,0,0,0,0,0,0,0,0,0,0,0,0,-2.2096,-2.2099,-2.2262,-2.2263,-2.2264,-2.2337,-2.2338,-2.2339,-2.2309,-2.2307,-2.2305,-2.2303,-2.2382,-2.2387,-2.2391,0,0,0,0,0,0,0,0,0,0,0,0,0,-2.217,-2.21,-2.2262,-2.2258,-2.2258,-2.2337,-2.2338,-2.2339,-2.231,-2.2307,-2.2305,-2.2302,-2.2381,-2.2386,-2.2392,-2.2479,0,0,-2.2409,-2.2411,0,0,0,0,0,0,0,0,-2.2165,-2.2176,-2.2258,-2.2258,-2.2259,-2.2311,-2.2309,-2.2387,-2.2311,-2.229,-2.2304,-2.2301,-2.2362,-2.2369,-2.2389,-2.2483,-2.2487,-2.2409,-2.2413,-2.2415,-2.2417,0,0,0,0,0,0,0,-2.216,-2.2172,-2.2292,-2.2259,-2.226,-2.2253,-2.2261,-2.2323,-2.234,-2.2292,-2.229,-2.2299,-2.2362,-2.2383,-2.239,-2.2488,-2.2409,-2.2414,-2.2418,-2.242,-2.2659,-2.2662,0,0,0,0,0,0,-2.2155,-2.2168,-2.229,-2.2294,-2.2205,-2.2259,-2.2267,-2.2297,-2.2339,-2.2343,-2.2301,-2.2297,-2.2375,-2.2384,-2.2393,-2.2499,-2.2415,-2.2421,-2.2424,-2.2656,-2.266,-2.2663,0,0,0,0,0,0,-2.2151,-2.2166,-2.2287,-2.2231,-2.2246,-2.2264,-2.2298,-2.23,-2.2322,-2.2346,-2.2349,-2.232,-2.2373,-2.2385,-2.2458,-2.2501,-2.2423,-2.2428,-2.2653,-2.2657,-2.2662,-2.2711,0,0,0,0,0,0,-2.2147,-2.2165,-2.2197,-2.2232,-2.2249,-2.235,-2.2301,-2.2303,-2.2331,-2.2327,-2.2365,-2.2369,-2.2372,-2.245,-2.2464,-2.2508,-2.2433,-2.2649,-2.2655,-2.266,-2.2706,-2.2717,-2.2726,0,0,0,0,0,-2.2141,-2.2209,-2.2199,-2.2214,-2.229,-2.2352,-2.2362,-2.2364,-2.2335,-2.2368,-2.2384,-2.2367,-2.2494,-2.2458,-2.2473,-2.2519,-2.2646,-2.2653,-2.266,-2.2701,-2.2715,-2.2726,0,0,0,0,0,0,-2.218,-2.2213,-2.2203,-2.2284,-2.2315,-2.2347,-2.2389,-2.2378,-2.2419,-2.2413,-2.2414,-2.2423,-2.2499,-2.2516,-2.2475,-2.2607,-2.2566,-2.2576,-2.2592,-2.2605,-2.2615,-2.261,-2.2437,0,0,0,0,0,-2.2198,-2.2245,-2.2272,-2.2341,-2.2357,-2.2371,-2.2398,-2.2396,-2.2429,-2.2443,-2.2464,-2.2498,-2.2545,-2.2576,-2.2621,-2.2708,-2.2717,-2.2748,-2.2758,-2.2766,-2.2775,-2.2823,-2.2838,-2.2685,-2.2685,-2.2685,0,0,-2.2236,-2.226,-2.2289,-2.2349,-2.2373,-2.2423,-2.2382,-2.2436,-2.2473,-2.2451,-2.2521,-2.2539,-2.2576,-2.2657,-2.2693,-2.2674,-2.2819,-2.2775,-2.2781,-2.2786,-2.2832,-2.2846,-2.2859,-2.269,-2.2689,-2.2688,0,0,-2.233,-2.2352,-2.2412,-2.2437,-2.2474,-2.2483,-2.2498,-2.2531,-2.2542,-2.2612,-2.2597,-2.2642,-2.2723,-2.2751,-2.2776,-2.2881,-2.2868,-2.2896,-2.2949,-2.2996,-2.3008,-2.3019,-2.3057,-2.3071,-2.2905,-2.2905,-2.2905,0,-2.2372,-2.2445,-2.2445,-2.25,-2.2528,-2.251,-2.2571,-2.2596,-2.2646,-2.2666,-2.2643,-2.2745,-2.2769,-2.2857,-2.2882,-2.2903,-2.292,-2.2891,-2.3007,-2.3017,-2.3027,-2.3064,-2.3078,-2.2908,-2.2908,-2.2907,-2.2907,0,-2.2496,-2.2547,-2.2591,-2.2639,-2.2672,-2.273,-2.2739,-2.2772,-2.2769,-2.278,-2.2853,-2.2881,-2.2932,-2.2953,-2.295,-2.304,-2.3027,-2.3005,-2.2964,-2.3045,-2.3079,-2.3093,-2.2913,-2.2911,-2.291,-2.291,0,0,-2.2616,-2.2664,-2.268,-2.2702,-2.2742,-2.2782,-2.284,-2.2889,-2.2917,-2.2953,-2.3002,-2.3072,-2.3053,-2.3081,-2.3081,-2.3122,-2.3205,-2.3096,-2.3097,-2.3115,-2.3307,-2.3323,-2.3339,-2.3196,-2.3199,-2.3201,-2.3304,0,-2.2713,-2.2814,-2.2816,-2.2908,-2.2956,-2.294,-2.2991,-2.3022,-2.3034,-2.3078,-2.3092,-2.3142,-2.3112,-2.3129,-2.3169,-2.3186,-2.3244,-2.3179,-2.3243,-2.3245,-2.3234,-2.3357,-2.3374,-2.347,-2.3318,-2.332,-2.3322,0,-2.284,-2.2879,-2.2976,-2.3009,-2.303,-2.3075,-2.312,-2.3162,-2.3197,-2.3203,-2.3235,-2.3229,-2.329,-2.3247,-2.3331,-2.3287,-2.3314,-2.3327,-2.333,-2.3336,-2.3288,-2.3367,-2.35,-2.3515,-2.3343,-2.3341,-2.3339,0,-2.2918,-2.2995,-2.3063,-2.3082,-2.3123,-2.3156,-2.3174,-2.3207,-2.3236,-2.3276,-2.3296,-2.3343,-2.3369,-2.3406,-2.3414,-2.3382,-2.3499,-2.3456,-2.3507,-2.3506,-2.3531,-2.353,-2.3671,-2.3549,-2.3548,-2.3548,-2.3548,0,-2.3026,-2.3087,-2.3099,-2.3141,-2.3208,-2.3211,-2.3278,-2.3294,-2.3323,-2.3369,-2.3359,-2.3402,-2.341,-2.3456,-2.3462,-2.3531,-2.3543,-2.3551,-2.3552,-2.3552,-2.3551,-2.3569,-2.3563,-2.3552,-2.3551,-2.355,-2.355,0,-2.3125,-2.3136,-2.3209,-2.3242,-2.3251,-2.33,-2.3328,-2.3369,-2.3381,-2.3439,-2.3453,-2.3472,-2.3525,-2.3537,-2.36,-2.3605,-2.3687,-2.3681,-2.3675,-2.3674,-2.3724,-2.3719,-2.3882,-2.3904,-2.3767,-2.3768,-2.3769,0,-2.3193,-2.3239,-2.3277,-2.3306,-2.3326,-2.3374,-2.3404,-2.3409,-2.3441,-2.3484,-2.352,-2.3572,-2.3614,-2.37,-2.372,-2.3769,-2.3765,-2.3819,-2.3772,-2.3771,-2.3766,-2.3764,-2.3769,-2.3828,-2.3829,-2.383,-2.3831,0,-2.3314,-2.3317,-2.336,-2.3405,-2.3441,-2.3477,-2.3512,-2.3537,-2.3546,-2.3583,-2.3637,-2.3669,-2.3734,-2.3786,-2.3835,-2.3856,-2.3846,-2.3846,-2.386,-2.386,-2.3855,-2.3859,-2.3699,-2.3842,-2.3841,-2.384,-2.384,-2.3839,-2.34,-2.344,-2.3473,-2.3521,-2.3548,-2.358,-2.362,-2.3637,-2.3682,-2.3734,-2.3734,-2.3793,-2.3829,-2.3893,-2.3917,-2.3964,-2.3948,-2.3968,-2.3973,-2.3978,-2.3983,-2.3847,-2.3973,-2.3973,-2.3973,-2.3972,-2.3972,0,-2.352,-2.354,-2.3585,-2.3633,-2.3672,-2.3658,-2.3696,-2.3729,-2.3781,-2.3814,-2.3855,-2.3918,-2.3969,-2.3993,-2.4044,-2.4077,-2.4074,-2.409,-2.4088,-2.4093,-2.3995,-2.3977,-2.4092,-2.4092,-2.4092,-2.4092,-2.4092,-2.4092,-2.3587,-2.3655,-2.3662,-2.3743,-2.3763,-2.382,-2.3843,-2.3873,-2.3899,-2.3969,-2.4011,-2.4026,-2.4057,-2.4109,-2.4156,-2.4162,-2.4181,-2.42,-2.4204,-2.4112,-2.41,-2.4088,-2.4072,-2.4204,-2.4204,-2.4298,-2.4299,-2.4299]},{"header":{"parameterUnit":"m.s-1","parameterCategory":1,"la1":30.2991,"la2":30.254,"lo1":-89.0895,"lo2":-89.0444,"dy":0.0017,"dx":0.0017,"nx":28,"ny":28,"refTime":"2024-09-02T09:00:00:Z","depth":0,"parameterNumber":3,"parameterNumberName":"V-component_of_WINDS"},"data":[0,0,0,0,0,0,0,0,0,0,0,0,0,0,0,0,0,0,0,0,0,0,0,0,0,0,0,0,0,0,0,0,0,0,0,0,0,0,0,0,0,0,0,0,0,0,0,0,0,0,0,0,0,0,0,0,0,0,0.8629,0.8629,0,0.8616,0.8615,0.8615,0.8606,0.8606,0.8606,0.8606,0.859,0.859,0.8589,0,0,0,0,0,0,0,0,0,0,0,0,0,0.8646,0.8646,0.8629,0.8629,0.8629,0.8616,0.8615,0.8615,0.8606,0.8606,0.8606,0.8606,0.859,0.859,0.8589,0,0,0,0,0,0,0,0,0,0,0,0,0,0.8636,0.8646,0.8629,0.8623,0.8622,0.8616,0.8615,0.8615,0.8606,0.8606,0.8606,0.8606,0.859,0.859,0.8589,0.8587,0,0,0.8587,0.8587,0,0,0,0,0,0,0,0,0.8637,0.8636,0.8624,0.8623,0.8622,0.8612,0.8615,0.8606,0.8606,0.8612,0.8606,0.8606,0.8597,0.8596,0.8594,0.8587,0.8586,0.8587,0.8587,0.8587,0.8587,0,0,0,0,0,0,0,0.8638,0.8636,0.8624,0.8624,0.8623,0.862,0.8619,0.8614,0.8605,0.8612,0.8611,0.861,0.8597,0.8594,0.8593,0.8586,0.8587,0.8587,0.8586,0.8586,0.8576,0.8576,0,0,0,0,0,0,0.864,0.8637,0.8624,0.8623,0.863,0.862,0.8618,0.8616,0.8605,0.8604,0.861,0.8609,0.8595,0.8594,0.8593,0.859,0.8587,0.8586,0.8586,0.8576,0.8576,0.8577,0,0,0,0,0,0,0.864,0.8638,0.8625,0.863,0.8628,0.862,0.8617,0.8616,0.8613,0.8604,0.8602,0.8609,0.8595,0.8593,0.8589,0.8589,0.8586,0.8585,0.8576,0.8576,0.8576,0.8584,0,0,0,0,0,0,0.864,0.8639,0.8638,0.863,0.8628,0.8622,0.8617,0.8615,0.8612,0.8611,0.8602,0.8601,0.8595,0.859,0.8588,0.8588,0.8585,0.8576,0.8576,0.8576,0.8584,0.8585,0.8585,0,0,0,0,0,0.8641,0.8641,0.8638,0.8637,0.8627,0.8622,0.862,0.8614,0.8612,0.8612,0.8606,0.8601,0.859,0.8589,0.8588,0.8588,0.8576,0.8576,0.8576,0.8584,0.8585,0.8585,0,0,0,0,0,0,0.8648,0.8639,0.8637,0.8634,0.8629,0.862,0.8619,0.8615,0.861,0.861,0.8602,0.86,0.8596,0.8591,0.8591,0.8585,0.8582,0.8582,0.8588,0.8589,0.859,0.8591,0.8585,0,0,0,0,0,0.865,0.8647,0.8639,0.8637,0.8634,0.8627,0.8625,0.862,0.8615,0.8612,0.8606,0.86,0.8595,0.8592,0.8587,0.8584,0.8581,0.8583,0.8583,0.8584,0.8584,0.8582,0.8582,0.8577,0.8577,0.8577,0,0,0.8652,0.8647,0.8645,0.8638,0.8634,0.863,0.8625,0.8622,0.8619,0.8611,0.8607,0.8602,0.8595,0.8591,0.8589,0.8587,0.8585,0.8584,0.8585,0.8584,0.8582,0.8582,0.8583,0.8577,0.8577,0.8577,0,0,0.8655,0.8651,0.8649,0.8645,0.8638,0.8634,0.8633,0.8626,0.8622,0.8618,0.8612,0.8609,0.86,0.8595,0.8592,0.8594,0.8589,0.8592,0.8595,0.8593,0.8594,0.8594,0.8594,0.8595,0.8592,0.8592,0.8592,0,0.8659,0.8654,0.8648,0.8645,0.8642,0.8636,0.8633,0.8629,0.8622,0.8619,0.8618,0.8607,0.8602,0.8597,0.8598,0.8595,0.8594,0.8593,0.8594,0.8595,0.8595,0.8595,0.8595,0.8592,0.8592,0.8592,0.8592,0,0.8658,0.8655,0.8654,0.8647,0.8644,0.8642,0.8635,0.8633,0.8629,0.8624,0.862,0.8613,0.8607,0.8606,0.8601,0.86,0.8599,0.8596,0.8592,0.8596,0.8596,0.8596,0.8593,0.8593,0.8593,0.8593,0,0,0.8665,0.8655,0.8655,0.8652,0.8645,0.8642,0.8639,0.8634,0.8631,0.8626,0.8623,0.8617,0.8614,0.861,0.8606,0.8604,0.8606,0.8601,0.8601,0.8602,0.8603,0.8605,0.8606,0.8603,0.8603,0.8603,0.8604,0,0.8666,0.8661,0.8656,0.8652,0.8649,0.8644,0.8641,0.8636,0.8632,0.8628,0.8623,0.8619,0.8616,0.8613,0.8611,0.8606,0.8606,0.8606,0.8599,0.8599,0.8601,0.8606,0.8608,0.8609,0.8604,0.8604,0.8604,0,0.8667,0.8663,0.8659,0.8653,0.8651,0.8649,0.8643,0.864,0.8635,0.8632,0.8628,0.8623,0.8619,0.8617,0.8611,0.8611,0.8609,0.8606,0.8605,0.8604,0.8601,0.8604,0.8609,0.8609,0.8604,0.8604,0.8604,0,0.8672,0.8665,0.8662,0.866,0.8652,0.8651,0.8647,0.8642,0.8639,0.8634,0.8632,0.8627,0.8624,0.8619,0.8613,0.8612,0.8608,0.8605,0.8605,0.8606,0.8604,0.8604,0.8609,0.8603,0.8603,0.8603,0.8603,0,0.8673,0.8671,0.8664,0.8662,0.866,0.8654,0.8651,0.8648,0.8643,0.864,0.8634,0.8632,0.8624,0.862,0.8615,0.8612,0.861,0.8607,0.8606,0.8608,0.8608,0.8605,0.8605,0.8603,0.8603,0.8603,0.8603,0,0.8678,0.8673,0.867,0.8663,0.8661,0.866,0.8654,0.8651,0.8647,0.8643,0.8642,0.8635,0.8631,0.8625,0.8618,0.8614,0.8611,0.8609,0.8613,0.8612,0.8612,0.8612,0.8615,0.8615,0.861,0.861,0.861,0,0.8679,0.8678,0.8671,0.8669,0.8666,0.8663,0.866,0.8654,0.8652,0.8645,0.8644,0.8639,0.8635,0.8627,0.8621,0.8616,0.8614,0.8615,0.8613,0.8615,0.8613,0.8613,0.8613,0.8615,0.8615,0.8615,0.8616,0,0.8682,0.868,0.8677,0.8672,0.8669,0.8666,0.8661,0.866,0.8653,0.8651,0.8646,0.8643,0.8636,0.8631,0.8625,0.8621,0.8617,0.8616,0.8616,0.8617,0.862,0.8618,0.8614,0.8616,0.8616,0.8616,0.8616,0.8616,0.8685,0.8683,0.8679,0.8675,0.8671,0.8668,0.8666,0.8661,0.8658,0.8652,0.8649,0.8645,0.8639,0.8631,0.8627,0.8623,0.8622,0.8621,0.8621,0.8621,0.8621,0.8621,0.8622,0.8622,0.8622,0.8622,0.8622,0,0.8687,0.8684,0.8681,0.8676,0.8673,0.867,0.8666,0.8663,0.8659,0.8655,0.8651,0.8646,0.8641,0.8635,0.863,0.8628,0.8626,0.8627,0.8627,0.8626,0.8623,0.8624,0.8629,0.8629,0.8629,0.8629,0.8629,0.8629,0.8688,0.8685,0.8683,0.8678,0.8674,0.8671,0.8668,0.8665,0.8661,0.8656,0.8652,0.8649,0.8643,0.8638,0.8633,0.8632,0.863,0.8631,0.8629,0.8627,0.8626,0.8625,0.8626,0.8631,0.8631,0.8632,0.8632,0.8632]}]]